GW1175 Weather Reports


Display with metric or nautical units.
time (UTC)temp
F
wind
direction
speed
MPH
gust
MPH
rain 1hr
in
rain 24hr
in
rain mn
in
humidity
%
barometer
mb
20220707094014 73 91 0.0 1.0 0.00 0.00 0.00 92 1015.1
20220707093513 73 114 0.0 2.0 0.00 0.00 0.00 92 1015.1
20220707093011 73 105 0.0 2.0 0.00 0.00 0.00 92 1015.4
20220707092510 73 106 0.0 2.0 0.00 0.00 0.00 92 1015.3
20220707092010 73 128 2.0 5.0 0.00 0.00 0.00 92 1015.0
20220707091509 73 109 1.0 1.0 0.00 0.00 0.00 92 1015.3
20220707091008 73 99 0.0 3.0 0.00 0.00 0.00 92 1015.2
20220707090507 73 124 1.0 3.0 0.00 0.00 0.00 92 1015.1
20220707090005 73 100 1.0 2.0 0.00 0.00 0.00 92 1015.4
20220707085504 73 91 0.0 1.0 0.00 0.00 0.00 92 1015.3
20220707085002 73 69 1.0 2.0 0.00 0.00 0.00 92 1015.2
20220707084501 73 80 1.0 2.0 0.00 0.00 0.00 92 1015.3
20220707084001 73 85 0.0 2.0 0.00 0.00 0.00 92 1015.3
20220707083459 73 64 1.0 3.0 0.00 0.00 0.00 92 1015.2
20220707082958 73 81 2.0 3.0 0.00 0.00 0.00 92 1015.2
20220707082457 73 118 1.0 3.0 0.00 0.00 0.00 92 1015.3
20220707081958 73 101 0.0 1.0 0.00 0.00 0.00 92 1015.5
20220707081456 73 122 0.0 3.0 0.00 0.00 0.00 92 1015.3
20220707080954 73 123 1.0 2.0 0.00 0.00 0.00 92 1015.0
20220707080453 73 95 0.0 2.0 0.00 0.00 0.00 92 1014.9
20220707075953 73 103 0.0 2.0 0.00 0.00 0.00 92 1015.1
20220707075452 74 161 0.0 2.0 0.00 0.00 0.00 91 1015.0
20220707074950 74 84 0.0 0.0 0.00 0.00 0.00 91 1015.2
20220707074448 74 114 0.0 0.0 0.00 0.00 0.00 91 1015.7
20220707073948 74 100 0.0 1.0 0.00 0.00 0.00 91 1015.9
20220707073446 74 95 0.0 0.0 0.00 0.00 0.00 91 1016.1
20220707072944 74 121 0.0 0.0 0.00 0.00 0.00 91 1015.9
20220707072443 74 122 0.0 0.0 0.00 0.00 0.00 91 1015.9
20220707071941 74 68 0.0 1.0 0.00 0.00 0.00 92 1015.7
20220707071440 74 96 0.0 0.0 0.00 0.00 0.00 92 1016.1
20220707070938 74 96 0.0 0.0 0.00 0.00 0.00 92 1016.3
20220707070437 73 97 0.0 0.0 0.00 0.00 0.00 92 1016.4
20220707065934 73 95 0.0 0.0 0.00 0.00 0.00 92 1016.2
20220707065432 73 119 0.0 0.0 0.00 0.00 0.00 92 1016.1
20220707064931 74 122 0.0 1.0 0.00 0.00 0.00 92 1016.2
20220707064430 74 96 0.0 0.0 0.00 0.00 0.00 92 1016.1
20220707063930 74 107 0.0 0.0 0.00 0.00 0.00 92 1016.0
20220707063430 74 105 0.0 0.0 0.00 0.00 0.00 92 1016.1
20220707062928 74 125 0.0 0.0 0.00 0.00 0.00 92 1016.2
20220707062427 74 125 0.0 0.0 0.00 0.00 0.00 91 1016.1
20220707061926 74 94 0.0 0.0 0.00 0.00 0.00 91 1016.4
20220707061425 74 86 0.0 1.0 0.00 0.00 0.00 91 1016.3
20220707060923 74 89 0.0 1.0 0.00 0.00 0.00 91 1016.3
20220707060423 74 87 0.0 1.0 0.00 0.00 0.00 91 1016.2
20220707055921 74 73 0.0 1.0 0.00 0.00 0.00 91 1016.4
20220707055419 74 68 3.0 5.0 0.00 0.00 0.00 91 1016.3
20220707054918 74 100 0.0 0.0 0.00 0.00 0.00 91 1016.2
20220707054417 74 111 1.0 1.0 0.00 0.00 0.00 91 1016.1
20220707053916 74 102 0.0 1.0 0.00 0.00 0.00 91 1016.2
20220707053414 74 139 1.0 2.0 0.00 0.00 0.00 91 1016.2
20220707052914 74 105 0.0 0.0 0.00 0.00 0.00 91 1016.3
20220707052413 74 108 0.0 1.0 0.00 0.00 0.00 92 1016.1
20220707051913 74 101 0.0 0.0 0.00 0.00 0.00 92 1016.1
20220707051413 74 85 0.0 1.0 0.00 0.00 0.00 92 1016.1
20220707050912 74 88 0.0 0.0 0.00 0.00 0.00 92 1015.7
20220707050411 74 104 0.0 0.0 0.00 0.00 0.00 92 1015.9
20220707045909 73 114 0.0 1.0 0.00 0.04 0.04 92 1016.0
20220707045407 74 114 0.0 0.0 0.00 0.04 0.04 92 1016.2
20220707044903 74 108 0.0 0.0 0.00 0.04 0.04 92 1016.1
20220707044402 74 97 0.0 0.0 0.00 0.04 0.04 92 1015.8
20220707043902 74 97 0.0 1.0 0.00 0.04 0.04 92 1015.6
20220707043402 74 72 0.0 0.0 0.00 0.04 0.04 91 1015.9
20220707042901 74 94 0.0 1.0 0.00 0.04 0.04 91 1015.6
20220707042400 74 103 0.0 0.0 0.00 0.04 0.04 91 1015.6
20220707041859 74 85 1.0 3.0 0.00 0.04 0.04 92 1015.7
20220707041356 74 118 0.0 0.0 0.00 0.04 0.04 92 1015.8
20220707040857 74 118 0.0 0.0 0.00 0.04 0.04 91 1015.9
20220707040355 74 113 0.0 1.0 0.00 0.04 0.04 91 1016.0
20220707035853 74 69 0.0 1.0 0.00 0.04 0.04 92 1015.9
20220707035353 74 99 0.0 0.0 0.00 0.04 0.04 91 1016.2
20220707034853 74 99 0.0 0.0 0.00 0.04 0.04 91 1016.1
20220707034351 74 99 0.0 0.0 0.00 0.04 0.04 91 1016.2
20220707033851 74 99 0.0 0.0 0.00 0.04 0.04 91 1016.3
20220707033350 75 99 0.0 0.0 0.00 0.04 0.04 90 1016.1
20220707032848 75 99 0.0 0.0 0.00 0.04 0.04 90 1016.4
20220707032348 75 99 0.0 0.0 0.00 0.04 0.04 90 1016.4
20220707031847 75 99 0.0 0.0 0.00 0.04 0.04 90 1016.4
20220707031346 75 99 0.0 0.0 0.00 0.04 0.04 90 1016.4
20220707030845 75 99 0.0 0.0 0.00 0.04 0.04 89 1016.4
20220707030344 75 99 0.0 0.0 0.00 0.04 0.04 89 1016.5
20220707025844 75 103 0.0 0.0 0.00 0.04 0.04 89 1016.3
20220707025342 75 103 0.0 0.0 0.00 0.04 0.04 89 1016.3
20220707024840 75 112 0.0 1.0 0.00 0.04 0.04 89 1016.4
20220707024340 75 121 0.0 0.0 0.00 0.04 0.04 89 1016.6
20220707023839 75 106 0.0 0.0 0.00 0.04 0.04 89 1016.5
20220707023338 75 106 0.0 0.0 0.00 0.04 0.04 88 1016.3
20220707022836 75 106 0.0 0.0 0.00 0.04 0.04 88 1016.4
20220707022335 75 108 0.0 0.0 0.00 0.04 0.04 88 1016.4
20220707021835 75 108 0.0 0.0 0.00 0.04 0.04 88 1016.5
20220707021335 76 108 0.0 1.0 0.00 0.04 0.04 87 1016.5
20220707020833 76 125 0.0 0.0 0.00 0.04 0.04 87 1016.4
20220707020332 76 125 0.0 0.0 0.00 0.04 0.04 86 1016.7
20220707015830 76 125 0.0 1.0 0.00 0.04 0.04 86 1016.7
20220707015330 76 102 0.0 0.0 0.00 0.04 0.04 86 1016.5
20220707014828 76 102 0.0 2.0 0.00 0.04 0.04 85 1016.5
20220707014327 76 118 0.0 0.0 0.00 0.04 0.04 85 1016.4
20220707013825 76 118 0.0 1.0 0.00 0.04 0.04 85 1016.4
20220707013324 76 125 1.0 1.0 0.00 0.04 0.04 84 1016.4
20220707012822 77 120 0.0 0.0 0.00 0.04 0.04 84 1016.3
20220707012322 77 97 0.0 0.0 0.00 0.04 0.04 84 1016.2
20220707011822 77 96 1.0 1.0 0.00 0.04 0.04 83 1016.3
20220707011321 77 153 1.0 2.0 0.00 0.04 0.04 83 1016.3
20220707010820 77 109 0.0 2.0 0.00 0.04 0.04 83 1016.1
20220707010320 77 106 0.0 1.0 0.00 0.04 0.04 83 1016.1
20220707005818 77 81 0.0 1.0 0.00 0.04 0.04 83 1015.8
20220707005316 77 106 0.0 2.0 0.00 0.04 0.04 83 1015.6
20220707004817 77 114 1.0 1.0 0.00 0.04 0.04 83 1015.7
20220707004315 77 111 1.0 2.0 0.00 0.04 0.04 83 1015.9
20220707003814 77 121 0.0 1.0 0.00 0.04 0.04 84 1015.8
20220707003312 77 131 0.0 1.0 0.00 0.04 0.04 84 1015.7
20220707002812 77 107 0.0 1.0 0.00 0.04 0.04 84 1015.9
20220707002311 77 126 0.0 2.0 0.00 0.04 0.04 84 1015.8
20220707001811 77 99 1.0 2.0 0.00 0.04 0.04 85 1015.9
20220707001310 77 140 1.0 1.0 0.00 0.04 0.04 84 1016.0
20220707000810 76 103 0.0 1.0 0.00 0.04 0.04 85 1016.0
20220707000310 77 124 0.0 0.0 0.00 0.04 0.04 87 1016.1
20220706235808 77 125 0.0 0.0 0.00 0.04 0.04 85 1016.0
20220706235307 77 96 0.0 0.0 0.04 0.04 0.04 85 1016.2
20220706234805 77 103 0.0 0.0 0.04 0.04 0.04 85 1016.2
20220706234302 77 123 0.0 1.0 0.00 0.03 0.03 83 1016.1
20220706233801 77 97 0.0 2.0 0.00 0.03 0.03 82 1016.3
20220706233259 78 99 1.0 2.0 0.00 0.03 0.03 82 1016.5
20220706232757 78 135 1.0 2.0 0.00 0.03 0.03 81 1016.4
20220706232255 78 127 1.0 1.0 0.00 0.03 0.03 81 1016.4
20220706231755 78 125 2.0 3.0 0.00 0.03 0.03 80 1016.4
20220706231253 78 104 1.0 2.0 0.00 0.03 0.03 79 1016.6
20220706230751 78 116 1.0 2.0 0.00 0.03 0.03 78 1016.5
20220706230251 79 122 0.0 1.0 0.00 0.03 0.03 78 1016.6
20220706225750 79 126 0.0 0.0 0.00 0.03 0.03 77 1016.6
20220706225249 79 111 0.0 5.0 0.00 0.03 0.03 77 1016.7
20220706224748 79 104 1.0 2.0 0.00 0.03 0.03 76 1016.8
20220706224246 79 109 0.0 1.0 0.00 0.03 0.03 77 1016.6
20220706223744 79 100 0.0 1.0 0.00 0.03 0.03 77 1016.8
20220706223244 79 149 1.0 2.0 0.00 0.03 0.03 76 1016.8
20220706222744 80 121 1.0 2.0 0.00 0.03 0.03 75 1016.9
20220706222242 80 113 1.0 1.0 0.00 0.03 0.03 75 1016.8
20220706221742 80 82 0.0 1.0 0.00 0.03 0.03 76 1016.8
20220706221241 80 111 0.0 0.0 0.00 0.03 0.03 76 1016.9
20220706220741 80 128 2.0 3.0 0.00 0.03 0.03 76 1016.9
20220706220240 80 118 0.0 2.0 0.00 0.03 0.03 75 1017.0
20220706215740 80 99 0.0 2.0 0.00 0.03 0.03 76 1017.2
20220706215238 80 105 0.0 6.0 0.00 0.03 0.03 75 1017.0
20220706214739 80 130 1.0 3.0 0.00 0.03 0.03 74 1017.0
20220706214237 80 114 0.0 2.0 0.00 0.03 0.03 75 1017.3
20220706213736 80 119 1.0 2.0 0.00 0.03 0.03 75 1017.3
20220706213235 80 168 2.0 3.0 0.00 0.03 0.03 74 1017.3
20220706212733 81 146 2.0 2.0 0.00 0.03 0.03 74 1017.3
20220706212232 80 89 0.0 2.0 0.00 0.03 0.03 76 1017.4
20220706211731 80 116 1.0 1.0 0.00 0.03 0.03 76 1017.5
20220706211230 80 111 1.0 2.0 0.00 0.03 0.03 76 1017.4
20220706210731 79 68 2.0 3.0 0.00 0.03 0.03 75 1017.4
20220706210229 79 88 3.0 5.0 0.00 0.03 0.03 76 1017.4
20220706205729 79 74 1.0 2.0 0.00 0.03 0.03 76 1017.6
20220706205227 79 133 1.0 2.0 0.00 0.03 0.03 77 1017.7
20220706204727 79 113 2.0 3.0 0.00 0.03 0.03 77 1017.6
20220706204225 78 81 0.0 3.0 0.00 0.03 0.03 78 1017.7
20220706203724 78 118 0.0 2.0 0.00 0.03 0.03 77 1017.8
20220706203223 78 138 2.0 2.0 0.00 0.03 0.03 78 1017.7
20220706202722 78 109 0.0 1.0 0.00 0.03 0.03 78 1017.7
20220706202221 78 91 0.0 2.0 0.00 0.03 0.03 78 1017.7
20220706201719 78 97 1.0 2.0 0.00 0.03 0.03 78 1017.6
20220706201218 78 118 0.0 1.0 0.00 0.03 0.03 78 1017.6
20220706200718 78 115 0.0 2.0 0.00 0.03 0.03 78 1017.6
20220706200216 78 105 0.0 0.0 0.00 0.03 0.03 79 1017.5
20220706195716 78 106 0.0 0.0 0.00 0.03 0.03 80 1017.6
20220706195215 78 140 2.0 3.0 0.00 0.03 0.03 78 1017.7
20220706194715 78 104 0.0 1.0 0.00 0.03 0.03 79 1017.5
20220706194214 78 101 0.0 1.0 0.00 0.03 0.03 78 1017.6
20220706193713 78 76 1.0 5.0 0.00 0.03 0.03 78 1017.3
20220706193212 78 114 0.0 1.0 0.00 0.03 0.03 78 1017.3
20220706192710 79 144 2.0 2.0 0.00 0.03 0.03 78 1017.2
20220706192210 79 102 3.0 3.0 0.00 0.03 0.03 77 1017.2
20220706191710 79 112 1.0 3.0 0.00 0.03 0.03 77 1017.0
20220706191210 79 96 0.0 1.0 0.00 0.03 0.03 77 1017.0
20220706190709 79 89 0.0 1.0 0.00 0.03 0.03 76 1017.0
20220706190207 80 103 1.0 3.0 0.00 0.03 0.03 76 1016.8
20220706185705 80 118 1.0 2.0 0.00 0.03 0.03 76 1017.0
20220706185203 80 99 0.0 0.0 0.00 0.03 0.03 75 1016.8
20220706184702 80 69 0.0 1.0 0.00 0.03 0.03 74 1017.0
20220706184202 80 95 0.0 1.0 0.00 0.03 0.03 74 1016.8
20220706183701 80 109 1.0 3.0 0.00 0.03 0.03 75 1016.6
20220706183201 81 78 0.0 2.0 0.00 0.03 0.03 73 1016.5
20220706182701 80 96 1.0 2.0 0.00 0.03 0.03 75 1016.6
20220706182200 80 84 2.0 3.0 0.00 0.03 0.03 75 1016.6
20220706181700 80 117 0.0 2.0 0.00 0.03 0.03 75 1016.5
20220706181158 79 93 0.0 0.0 0.00 0.03 0.03 78 1016.4
20220706180657 79 69 1.0 2.0 0.00 0.03 0.03 78 1016.2
20220706180155 79 120 0.0 2.0 0.00 0.03 0.03 77 1016.3
20220706175654 79 100 1.0 2.0 0.00 0.03 0.03 77 1016.3
20220706175152 79 70 2.0 2.0 0.00 0.03 0.03 77 1016.3
20220706174652 78 80 0.0 1.0 0.00 0.03 0.03 79 1016.2
20220706174150 77 112 0.0 1.0 0.00 0.03 0.03 81 1016.2
20220706173648 77 58 1.0 2.0 0.00 0.03 0.03 81 1016.1
20220706173148 77 87 0.0 1.0 0.00 0.03 0.03 82 1016.2
20220706172647 76 80 0.0 2.0 0.00 0.03 0.03 83 1016.0
20220706172145 75 102 0.0 1.0 0.00 0.03 0.03 84 1016.0
20220706171645 75 107 0.0 3.0 0.00 0.03 0.03 84 1016.1
20220706171144 75 110 1.0 1.0 0.00 0.03 0.03 85 1016.0
20220706170644 75 109 0.0 1.0 0.00 0.03 0.03 85 1016.0
20220706170143 74 92 0.0 1.0 0.00 0.03 0.03 86 1015.9
20220706165641 74 105 0.0 0.0 0.00 0.03 0.03 86 1016.0
20220706165140 74 118 0.0 1.0 0.00 0.03 0.03 87 1015.9
20220706164639 74 111 0.0 5.0 0.00 0.03 0.03 86 1015.6
20220706164138 75 39 1.0 2.0 0.00 0.03 0.03 86 1015.5
20220706163637 75 55 1.0 3.0 0.00 0.03 0.03 86 1015.8
20220706163136 74 83 0.0 0.0 0.00 0.03 0.03 87 1016.1
20220706162634 74 45 1.0 2.0 0.00 0.03 0.03 87 1016.4
20220706162132 74 91 1.0 1.0 0.00 0.03 0.03 86 1016.4
20220706161631 75 74 0.0 1.0 0.00 0.03 0.03 86 1016.3
20220706161130 75 85 0.0 3.0 0.00 0.03 0.03 85 1016.3
20220706160628 75 72 1.0 3.0 0.00 0.03 0.03 85 1016.2
20220706160127 75 124 2.0 2.0 0.00 0.03 0.03 84 1016.2
20220706155626 76 210 1.0 2.0 0.00 0.03 0.03 84 1016.3
20220706155124 76 76 1.0 5.0 0.00 0.03 0.03 85 1016.4
20220706154624 76 48 3.0 6.0 0.00 0.03 0.03 84 1016.1
20220706154122 75 73 1.0 2.0 0.00 0.03 0.03 86 1016.1
20220706153622 75 67 2.0 2.0 0.00 0.03 0.03 87 1015.8
20220706153120 74 55 0.0 0.0 0.00 0.03 0.03 89 1015.7
20220706152620 73 73 0.0 1.0 0.00 0.03 0.03 90 1015.4
20220706152119 73 73 0.0 0.0 0.00 0.03 0.03 91 1015.4
20220706151619 73 73 0.0 0.0 0.00 0.03 0.03 92 1015.6
20220706151118 73 80 0.0 0.0 0.00 0.03 0.03 93 1015.3
20220706150617 72 80 0.0 1.0 0.00 0.03 0.03 92 1015.2
20220706150115 72 80 0.0 1.0 0.00 0.03 0.03 92 1015.0
20220706145613 72 80 0.0 1.0 0.00 0.03 0.03 92 1015.2
20220706145111 72 80 0.0 0.0 0.00 0.03 0.03 92 1015.1
20220706144611 72 80 0.0 0.0 0.00 0.03 0.03 92 1015.1
20220706144110 72 81 0.0 0.0 0.00 0.03 0.03 92 1015.1
20220706143610 72 82 0.0 0.0 0.00 0.03 0.03 93 1015.3
20220706143108 72 82 0.0 0.0 0.00 0.03 0.03 93 1015.4
20220706142608 72 82 0.0 0.0 0.00 0.03 0.03 93 1015.3
20220706142107 72 82 0.0 0.0 0.00 0.03 0.03 93 1015.4
20220706141606 72 81 0.0 0.0 0.00 0.03 0.03 92 1015.6
20220706141106 72 81 0.0 1.0 0.00 0.03 0.03 92 1015.5
20220706140604 72 83 0.0 0.0 0.00 0.03 0.03 93 1015.7
20220706140103 72 83 0.0 0.0 0.00 0.03 0.03 93 1015.5
20220706135602 71 83 0.0 0.0 0.00 0.03 0.03 92 1015.6
20220706135101 72 83 0.0 0.0 0.00 0.03 0.03 92 1015.5
20220706134600 72 83 0.0 0.0 0.00 0.03 0.03 92 1015.3
20220706134059 71 83 0.0 0.0 0.00 0.03 0.03 91 1015.3
20220706133557 71 82 0.0 0.0 0.00 0.03 0.03 91 1015.3
20220706133056 72 83 0.0 0.0 0.00 0.03 0.03 91 1015.4
20220706132554 72 83 0.0 0.0 0.00 0.03 0.03 90 1015.6
20220706132053 71 83 1.0 1.0 0.00 0.03 0.03 90 1015.4
20220706131552 71 73 0.0 0.0 0.00 0.03 0.03 90 1015.2
20220706131051 71 72 0.0 0.0 0.00 0.03 0.03 90 1015.3
20220706130551 71 60 1.0 1.0 0.00 0.03 0.03 90 1015.0
20220706130050 71 118 0.0 1.0 0.00 0.03 0.03 89 1015.0
20220706125548 71 93 0.0 0.0 0.00 0.03 0.03 90 1014.6
20220706125047 71 112 0.0 0.0 0.00 0.03 0.03 91 1014.7
20220706124545 71 98 0.0 1.0 0.00 0.03 0.03 90 1014.7
20220706124045 71 97 0.0 1.0 0.00 0.03 0.03 91 1014.7
20220706123543 71 85 1.0 3.0 0.00 0.03 0.03 92 1014.8
20220706123042 71 94 1.0 2.0 0.00 0.03 0.03 92 1015.2
20220706122540 71 81 1.0 6.0 0.00 0.03 0.03 91 1015.3
20220706122038 71 84 0.0 1.0 0.00 0.03 0.03 91 1015.4
20220706121537 70 100 0.0 1.0 0.00 0.03 0.03 93 1015.8
20220706121036 71 96 0.0 0.0 0.00 0.03 0.03 94 1015.9
20220706120535 71 108 0.0 0.0 0.00 0.03 0.03 93 1016.1
20220706120034 70 108 0.0 1.0 0.00 0.03 0.03 93 1016.2
20220706115534 70 93 0.0 0.0 0.07 0.03 0.03 93 1016.3
20220706115033 70 66 1.0 2.0 0.07 0.03 0.03 93 1016.3
20220706114532 71 60 2.0 3.0 0.00 0.02 0.02 93 1016.6
20220706114030 71 92 0.0 0.0 0.04 0.02 0.02 92 1017.0
20220706113529 71 66 1.0 2.0 0.04 0.02 0.02 92 1017.0
20220706113028 71 73 3.0 3.0 0.00 0.02 0.02 92 1017.3
20220706112526 71 88 0.0 0.0 0.07 0.02 0.02 92 1017.2
20220706112025 71 78 0.0 1.0 0.07 0.02 0.02 91 1017.3
20220706111523 72 106 0.0 0.0 0.00 0.00 0.00 91 1017.3
20220706111024 72 107 0.0 0.0 0.04 0.00 0.00 90 1017.3
20220706110523 72 107 0.0 0.0 0.00 0.00 0.00 88 1017.6
20220706110022 72 107 0.0 1.0 0.00 0.00 0.00 88 1017.4
20220706105521 73 99 0.0 1.0 0.00 0.00 0.00 88 1017.3
20220706105021 72 99 0.0 1.0 0.00 0.00 0.00 88 1017.4
20220706104519 72 100 0.0 0.0 0.00 0.00 0.00 89 1017.3
20220706104019 72 99 0.0 0.0 0.00 0.00 0.00 89 1017.2
20220706103518 72 88 0.0 2.0 0.00 0.00 0.00 89 1016.9
20220706103017 72 122 1.0 2.0 0.00 0.00 0.00 89 1016.3
20220706102515 72 56 0.0 0.0 0.00 0.00 0.00 90 1015.9
20220706102015 72 66 0.0 0.0 0.00 0.00 0.00 90 1015.7
20220706101513 73 66 0.0 1.0 0.00 0.00 0.00 90 1015.6
20220706101012 73 76 0.0 0.0 0.00 0.00 0.00 89 1015.6
20220706100511 73 76 0.0 0.0 0.00 0.00 0.00 89 1015.5
20220706100010 73 58 0.0 2.0 0.00 0.00 0.00 89 1015.5
20220706095508 73 94 0.0 0.0 0.00 0.00 0.00 89 1015.7
20220706095007 73 72 0.0 2.0 0.00 0.00 0.00 88 1015.3
20220706094506 73 82 0.0 2.0 0.00 0.00 0.00 88 1015.2